Charter Quote
Worldwide +1-877-727-2538 Call
Select Language Lang
SAFETY RELIABILITY EXPERIENCE

Private Jet Charter Services - Luogang (ZSOF)

Paramount Business Jets offers private jet charter flights and luxury airliner charters to and from Luogang.

AIRPORT INFORMATION
ICAOZSOF
LOCATIONHefei, China
FACILITY TYPEAIRPORT

At Paramount Business Jets you can hire chartered private jets to and from Luogang with as little as 4 hours of notice. All flights booked via Paramount Business Jets are operated by certified direct air carriers that meet and exceed the FAA part 135 and 121 protocol or a foreign equivalent safety authority. Furthermore, Paramount Business Jets subscribes to ARGUS for their third party safety checks of operators, aircraft, and crews prior each and every flight to and from Luogang and worldwide.

  • Quote a trip using Luogang or call us 24/7 - 365 days a year at +1-877-727-2538.
Questions? Call +1-877-727-2538

METAR Weather Data at Luogang, ZSOF

STATIONZSOF
OBSERVEDThu Nov 14, 16:00 UTC
NOWThu Nov 14, 16:57 UTC
AGE57 min ago
WINDS at 11 mph
VISIBILITYgreater than 7 miles
CLOUDSclear skies
TEMP54°F (12°C)
DEWPT28°F (-2°C)
HUMIDITY38%
BAROMETER1018 hPa (30.06 in Hg)
METARZSOF 141600Z 18005MPS CAVOK 12/M02 Q1018 NOSIG

Call us on +1-877-727-2538 (24 Hours), Check our Pricing, or Get a Quick Quote.

Find Airports Near any Location

Processing
...